Skip Page Navigation
NASA JPL Caltech
NASA Logo - Jet Propulsion Laboratory + View the NASA Portal
+ Center for Near-Earth Object Studies
JPL Home Earth Solar System Stars & Galaxies Technology
JPL Solar System Dynamics
BODIES ORBITS EPHEMERIDES TOOLS PHYSICAL DATA DISCOVERY FAQ SITE MAP
IMPORTANT: The SSD Announcement email list is now available. Major changes are coming in the near future, including possible hostname and/or URL changes. To be notified of such changes, subscribe to this email list.

Please visit this page for more details.


JPL Small-Body Database Browser
Search: [ help ]  
423790 (2006 GY50)
Classification: Main-belt Asteroid          SPK-ID: 2423790
Ephemeris | Orbit Diagram | Orbital Elements | Mission Design | Physical Parameters | Discovery Circumstances | Close-Approach Data ]

[ show orbit diagram ]
Orbital Elements at Epoch 2459000.5 (2020-May-31.0) TDB
Reference: JPL 16 (heliocentric ecliptic J2000)
 Element Value Uncertainty (1-sigma)   Units 
e .170263615077396 5.4656e-08  
a 2.890735359845934 4.4196e-08 au
q 2.398548307246508 1.6301e-07 au
i 9.483102906744451 5.8571e-06 deg
node 119.0490697598741 4.0849e-05 deg
peri 41.95300963586761 4.7531e-05 deg
M 342.9791157629205 2.9283e-05 deg
tp 2459085.377102687804
(2020-Aug-23.87710269)
0.00014746 TDB
period 1795.192102948727
4.91
4.117e-05
1.127e-07
d
yr
n .2005356415108306 4.599e-09 deg/d
Q 3.382922412445359 5.1721e-08 au
  Orbit Determination Parameters
   # obs. used (total)      190  
   data-arc span      6387 days (17.49 yr)  
   first obs. used      2001-03-20  
   last obs. used      2018-09-14  
   planetary ephem.      DE431  
   SB-pert. ephem.      SB431-N16  
   condition code      0  
   norm. resid. RMS      .62276  
   source      ORB  
   producer      Otto Matic  
   solution date      2018-Oct-04 12:06:04  

Additional Information
 Earth MOID = 1.41758 au 
 Jupiter MOID = 1.64903 au 
 T_jup = 3.249 
[ show covariance matrix ]

Ephemeris | Orbit Diagram | Orbital Elements | Mission Design | Physical Parameters | Discovery Circumstances | Close-Approach Data ]

Physical Parameter Table
Parameter Symbol Value Units Sigma Reference Notes
absolute magnitude H 16.2   n/a MPO419089  
diameter diameter 2.782 km 0.402 urn:nasa:pds:neowise_diameters_albedos::2.0[mainbelt] (http://adsabs.harvard.edu/abs/2011ApJ...741...68M)  
geometric albedo albedo 0.069   0.022 urn:nasa:pds:neowise_diameters_albedos::2.0[mainbelt] (http://adsabs.harvard.edu/abs/2011ApJ...741...68M)  

423790 (2006 GY50)          Discovered 2006-Apr-02 by LONEOS at Anderson Mesa
Reference: Last Updated: 2015-02-04

[ show close-approach data ]
Ephemeris | Orbit Diagram | Orbital Elements | Mission Design | Physical Parameters | Discovery Circumstances | Close-Approach Data ]
ABOUT SSD CREDITS/AWARDS PRIVACY/COPYRIGHT GLOSSARY LINKS
FirstGov 2020-Feb-18 01:50 UT
(server date/time)  
NASA Home Page
Site Manager:   Ryan S. Park
Webmaster  Alan B. Chamberlin